Погода Жангизтобе

Погода Жангизтобе : погода сейчас, прогноз погоды и архив. Всё, что Вы хотите узнать о погоде Жангизтобе!

Хотите узнать прогноз погоды Жангизтобе? Тогда Вам сюда: Погода Жангизтобе

Поиск расширенной информации на нашем сайте:

Другие новости

Новости СМИ2

Главная страница сайта

Новости сайта

02.10.2013

Напоминаем, что на нашем новом сайте вы можете получить высокодетализированные прогнозы погоды по пунктам России, СНГ и мира (включающие важные для авиации метеовеличины, такие как направление и скорость ветра, видимость, явления погоды, количество и форма облачности, нижняя и верхняя граница облачности), а также ознакомиться с разнообразными материалами по авиационной метеорологии и подборкой полезных ссылок на эту тему.

Сайт Метеоцентр.Азия посвящён разработке технологий оптимизации авиаметеорологического обслуживания, включая проектирование и перспективное создание нескольких автоматизированных авиаметеорологических систем:
- система выпуска высокодетальных прогностических карт явлений погоды для нижнего воздушного пространства по России и ближнему зарубежью;
- система верификации прогнозов TAF (выпускаемых синоптиками официальных АМСГ РФ и ближнего зарубежья) и AUTOTAF (выпускаемых сайтом Метеоцентр.Азия) - выявление ошибок, онлайн-сопоставление с фактической погодой METAR, автоматическое внесение коррективов в прогнозы при резком отклонении фактической погоды от прогноза, подсчёт оправдываемости прогнозов по элементам и в целом;
- система обработки, анализа и отображения авиаметеорологической информации для применения провайдерами метеорологической информации.

Рекомендуем: poselki-biznes-klassa купить

Погода Жангизтобе - сегодня

Время (UTC), дата Ветер
(°,м/с) 
Видим.   Явления Облачность Т
(°С)
Тd
(°С)
f(%) Тe
(°С)
Pmin
(гПа)
dP
(гПа)
Po
(мм)
O2
(г/м3)
Тmin Tmax R s Состояние
почвы
00 25.04.17 270 (З) 20000 м    ясно 
+4.7 +3.3 91 +6  1027  0.4  729  288           
03 25.04.17 350 (С) 20000 м    ясно 
+9.8 +3.2 63 +10  1026.6  0.6  729  283           
06 25.04.17 350 (С) 20000 м    8/0 верхняя 
[Ci fib]
+12.7 +3.7 54 +13  1024.9  -1.1  728  280  +4.6         
09 25.04.17 350 (С) 20000 м    4/0 верхняя 
[Ci fib]
+15.4 +3.3 44 +15  1023  -1.3  728  277           
12 25.04.17 350 (С) 20000 м    ясно 
+15.2 +2.4 42 +15  1022.1  -0.9  727  277           
15 25.04.17 320 (СЗ) н/о    ясно 
+9.8 +1.2 55 +9  1023.2  0.1  727  282    +16.2       
18 25.04.17 220 (ЮЗ) н/о    ясно 
+3.9 +1.6 85 +5  1024.4  727  288    +16.2       
21 25.04.17 190 (Ю) н/о    ясно 
+3 +1.5 90 +4  1023.5  -1  726  289           
00 26.04.17 230 (ЮЗ) 20000 м    ясно 
+2.7 +0.1 83 +3  1023.1  -0.5  726  289           
03 26.04.17 тихо ()   20000 м    ясно 
+7.2 +1.7 68 +7  1022.4  0.2  726  285           
06 26.04.17 тихо ()   20000 м    ясно 
+18.2 +6.5 46 +18  1019.3  -0.9  725  273  +1.5         
09 26.04.17 100 (В) 20000 м    ясно 
+22.2 +7.7 39 +22  1017.3  -1.2  724  269           
12 26.04.17 090 (В) 20000 м    ясно 
+23.4 +7.1 35 +23  1016.5  -0.5  724  267           
15 26.04.17 190 (Ю) н/о    ясно 
+13.5 +7 65 +15  1019  0.6  724  277    +24.7       
18 26.04.17 190 (Ю) н/о    ясно 
+10.1 +5.6 74 +11  1020.2  0.5  725  281    +24.7       
21 26.04.17 150 (ЮВ) н/о    ясно 
+8.1 +4.3 77 +7  1019.2  -1.3  724  283           
00 27.04.17 150 (ЮВ) 20000 м    ясно 
+10.3 +5.8 74 +9  1018.5  -0.2  724  280           
03 27.04.17 150 (ЮВ) 20000 м    ясно 
+13.3 +7 66 +13  1018.3  0.3  724  277           
06 27.04.17 190 (Ю) 20000 м    ясно 
+20.2 +8.3 46 +20  1016.8  -0.2  724  270  +8         
09 27.04.17 190 (Ю) 20000 м    ясно 
+23.4 +7.9 37 +23  1015.4  -0.8  723  267           
12 27.04.17 150 (ЮВ) 20000 м    ясно 
+24.1 +8.8 38 +24  1014.8  -0.4  723  266           
15 27.04.17 170 (Ю) н/о    ясно 
+17.5 +7.8 53 +19  1016.3  0.3  723  272    +25.4       
18 27.04.17 190 (Ю) н/о    ясно 
+13.3 +7 66 +14  1017.3  0.2  723  277    +25.4       
21 27.04.17 190 (Ю) н/о    ясно 
+10.8 +5.5 70 +12  1017.8  723  279           
00 28.04.17 170 (Ю) 20000 м    6/0 верхняя 
[Ci fib]
+8.1 +4 75 +9  1019.5  1.1  724  283           
Время (UTC), дата Ветер
(°,м/с) 
Видим.   Явления Облачность Т
(°С)
Тd
(°С)
f(%) Тe
(°С)
Pmin
(гПа)
dP
(гПа)
Po
(мм)
O2
(г/м3)
Тmin Tmax R s Состояние
почвы

Для получения пояснительной информации подведите курсор к названию столбца.

ПОГОДА Жангизтобе - архив

Всё, что Вы хотите узнать о погоде Жангизтобе - удобно и подробно!

Выберите нужную дату (начиная с 1 января 2015* года) и нажмите кнопку "Найти".
Будут отображены архивные сводки погоды по пункту Жангизтобе, начиная с указанной даты.


Отображать данные в формате CSV (для использования в таблицах Excel)


Внимание! Наш архив погоды предназначен исключительно для личного некоммерческого использования в познавательных целях. Если Вам необходимы официальные справки о состоянии погоды (для производственных, юридических, коммерческих и т.п. целей), обращайтесь в органы Росгидромета.

*Примечание: данная дата относится к архиву по метеостанциям СССР (Россия, СНГ, Балтия).
Архив по метеостанциям Зарубежной Европы и Азии (кроме Китая) хранится 10 дней, по другим регионам земного шара (Китай, Африка, Америка, Австралия, Океания) - 1 день.

Жангизтобе - район местоположения метеостанции


Название, широта, долгота, высота метеостанции:
Жангизтобе 49.2°ш. 81.2°д. 455 м над ур. моря [Казахстан]

Дополнительная информация

В oтличие oт бoльшинства пoгoдных сайтoв мы публикуем пoдрoбную метеoинфoрмацию в детальнoм прoфессиoнальнoм фoрмате.

Характеристики температуры и влажнoсти вoздуха измеряются на высoте 2 м в тени вдали oт зданий и деревьев.
Скoрoсть ветра измеряется на высoте 10 м (на урoвне рoста челoвека скoрoсть ветра ниже в 1.5-2 раза). Если метеoстанция нахoдится в гoрoде или в лесу, тo скoрoсть ветра занижена на 2-4 м/с пo сравнению с oткрытым местoм. Скoрoсть ветра над акватoриями крупных рек и oзёр, а также на вершинах хoлмoв на 2-5 м/с выше, чем в oбычных услoвиях.
Атмoсфернoе давление в разных тoчках местнoсти мoжет значительнo oтличаться oт давления на метеoстанции, в зависимoсти oт услoвий рельефа (при пoдъёме на 10 м давление пoнижается примернo на 1 мм рт.ст.).